Theta_e
314 312 311 308 311 313 313 312 310 311 311 310 311 311 310 310 310 310 311 312 315 319 320 322 322 341 348 349 348 345 350 355 351 353 353 349 347 343 341 342 342 343 346 346 346
314 312 311 308 310 312 313 312 311 311 311 310 310 311 311 311 311 311 313 312 314 316 317 327 343 340 339 343 351 345 349 351 345 347 348 349 346 344 343 343 343 345 346 345 343
314 313 310 307 310 312 313 313 311 311 311 310 309 310 311 311 311 316 320 314 314 316 317 324 334 329 335 347 348 344 348 347 346 345 345 350 347 345 345 346 344 345 345 343 344
313 313 308 308 308 309 311 312 312 312 312 310 308 309 310 310 327 329 323 315 315 316 315 324 332 329 331 348 346 343 343 345 344 344 349 350 348 347 346 344 343 344 345 345 345
313 312 309 309 311 313 312 310 309 309 309 308 308 308 309 311 313 322 321 319 315 313 314 321 330 329 329 337 343 346 347 345 343 344 347 349 347 346 344 343 343 345 345 345 345
312 312 310 311 316 316 316 311 309 309 309 309 308 308 308 313 321 322 323 321 318 314 314 322 331 330 330 340 350 348 345 343 347 344 350 347 345 344 343 342 343 343 344 345 346
312 313 310 313 315 315 315 315 310 308 308 309 308 308 308 316 321 325 323 323 315 314 315 328 330 329 330 329 347 344 345 348 346 350 346 343 347 346 344 342 342 341 342 344 346
312 313 312 312 314 315 315 316 317 311 306 306 306 307 311 319 319 319 321 321 313 313 315 326 328 325 327 329 348 351 350 354 351 349 345 346 349 343 344 343 343 342 342 343 344
312 313 313 312 314 315 316 317 318 318 309 306 317 321 318 322 321 320 322 323 316 318 320 325 322 324 326 329 344 350 355 351 354 350 348 349 348 344 343 343 343 341 343 343 344
311 313 313 313 314 315 316 317 321 325 321 311 312 319 322 322 321 319 324 325 320 318 317 318 321 320 320 322 334 346 350 348 355 352 349 350 349 344 341 342 342 342 343 343 344
311 312 313 314 314 316 317 318 322 323 320 321 322 322 322 322 321 322 327 326 324 319 319 323 320 321 322 322 329 335 348 353 350 347 353 351 349 345 341 342 344 344 343 344 343
313 312 313 314 314 317 316 318 321 322 321 322 322 323 323 323 322 325 326 323 322 319 320 319 320 321 322 327 329 335 348 349 347 347 350 351 350 344 342 342 345 344 342 344 344
313 312 313 314 314 316 318 321 321 320 320 323 325 322 321 323 324 323 324 323 321 320 319 317 319 322 322 326 325 342 346 350 350 349 347 351 352 347 344 346 344 344 344 344 344
312 313 313 313 316 320 321 319 319 320 318 323 324 324 322 322 323 323 322 322 318 319 317 316 319 320 320 323 329 346 345 347 348 348 351 344 353 349 347 345 348 346 345 346 345
314 313 312 313 316 319 319 321 321 320 329 322 320 321 322 321 323 323 320 320 317 317 316 316 319 320 321 322 334 346 344 345 346 340 343 345 346 343 346 347 344 347 344 345 346
316 314 313 313 313 320 320 321 322 323 330 327 324 323 322 322 322 323 321 320 320 320 318 317 320 320 321 322 337 342 342 344 342 344 349 346 346 346 347 346 343 345 345 345 346
316 314 313 313 318 320 320 322 324 325 325 326 322 322 322 324 325 323 321 319 318 319 318 318 319 319 322 335 337 341 339 343 343 343 346 345 348 347 346 344 343 343 346 342 345
314 313 313 313 317 319 321 321 328 329 328 325 325 324 326 325 324 326 322 319 319 318 318 318 318 324 327 327 334 336 334 334 343 340 339 344 353 351 345 344 346 346 345 343 341
313 313 314 313 320 320 320 323 326 327 326 325 324 324 326 327 327 325 321 319 319 318 322 323 322 324 326 327 325 327 329 330 334 333 332 344 350 349 345 347 345 344 345 343 341
313 316 320 315 318 320 317 321 324 326 324 323 325 326 327 326 326 326 325 322 321 322 321 322 325 324 324 326 324 324 324 322 320 330 334 342 352 351 349 345 347 345 344 344 343
319 321 321 321 320 320 318 319 324 324 324 325 325 325 326 327 328 329 327 327 327 324 321 321 321 323 323 323 322 322 320 319 318 322 328 340 343 346 342 342 341 336 338 345 344
316 322 321 321 319 319 319 322 324 318 323 324 324 325 325 327 329 327 328 327 327 324 323 323 316 321 322 325 322 319 321 317 319 321 321 326 340 338 340 340 342 342 339 342 345
317 320 321 321 319 319 321 323 321 317 318 321 323 322 323 326 328 327 327 326 327 322 322 322 322 324 325 325 326 328 328 324 316 313 318 322 341 337 338 339 341 342 343 341 345
318 322 324 321 322 322 321 322 317 319 320 321 320 323 324 324 323 326 325 326 325 322 323 324 322 322 325 327 327 329 328 325 321 320 325 338 345 341 342 340 340 343 346 346 340
321 322 329 325 323 319 320 320 318 319 319 320 320 322 326 326 324 325 325 323 324 324 321 318 321 325 326 328 328 328 327 328 326 331 328 342 343 343 338 338 338 340 349 348 348
321 331 330 329 327 323 318 317 318 319 316 316 320 319 319 322 319 318 319 322 324 322 323 318 319 321 321 324 324 330 331 334 333 341 340 339 339 338 333 334 334 334 341 346 346
325 326 329 329 327 322 319 321 320 318 318 320 318 315 316 317 318 318 316 316 317 324 322 321 319 319 322 320 323 331 331 334 341 344 337 342 336 330 330 331 338 339 344 342 344
Wind_Speed
15 15 15 14 11 9 7 6 5 5 5 5 6 6 7 8 10 14 14 7 13 5 8 8 11 12 4 3 4 6 4 4 5 3 2 3 12 20 24 34 21 11 32 32 34
14 14 15 13 11 10 7 6 5 5 5 5 5 6 8 9 12 17 8 8 15 11 9 14 14 12 4 5 3 5 2 4 4 6 7 5 21 29 21 19 23 31 35 36 35
13 14 14 13 11 10 8 6 4 4 5 5 5 6 7 8 10 3 0 14 18 11 11 16 11 6 11 5 4 2 2 2 1 4 6 5 4 18 24 7 33 40 38 39 37
13 14 14 13 11 9 8 7 5 4 4 5 5 5 6 4 2 2 6 6 14 14 13 17 15 6 3 8 13 7 14 11 7 9 6 10 9 14 27 25 40 45 42 39 37
12 13 14 12 10 10 9 8 6 5 4 5 5 5 5 4 8 1 7 4 13 14 16 19 16 8 4 11 14 5 13 15 15 26 16 8 5 16 21 31 43 42 43 38 36
11 12 12 10 10 10 10 9 7 5 4 5 4 5 5 4 3 1 7 4 12 14 16 22 10 2 8 3 12 21 15 17 14 13 7 6 5 20 22 32 39 37 38 35 33
10 11 11 9 9 10 11 11 10 7 4 3 4 5 8 12 3 1 4 8 9 14 19 24 16 8 7 5 9 21 10 5 14 11 6 6 6 4 29 25 29 29 37 35 35
9 10 10 8 9 10 10 10 9 9 6 3 2 4 7 1 9 12 6 4 9 10 15 17 12 16 14 2 6 8 8 8 10 13 10 3 5 4 20 24 25 23 35 34 31
9 9 10 9 9 10 11 11 10 8 5 1 1 6 7 7 13 13 10 8 7 8 13 12 10 13 9 3 3 4 3 4 6 4 4 1 7 7 11 25 22 22 31 32 29
9 9 10 10 9 10 12 14 11 10 6 4 7 8 3 7 7 7 12 12 11 9 11 13 7 2 3 3 5 8 7 6 8 4 3 3 2 2 8 19 12 11 36 33 34
10 9 10 9 9 9 10 10 9 3 10 12 14 17 20 10 3 4 17 14 14 10 4 4 3 5 10 7 3 5 2 8 4 6 6 5 7 6 8 8 3 8 26 38 39
12 10 9 9 7 7 6 8 6 7 11 21 20 19 15 11 6 4 13 10 7 6 3 4 5 11 7 3 8 10 2 5 4 5 1 4 4 4 6 5 5 7 31 29 29
13 11 9 8 6 7 6 7 16 27 5 12 8 9 5 11 9 10 12 11 4 2 2 6 11 12 6 8 12 4 7 9 6 8 3 4 3 6 0 4 6 9 28 34 35
13 12 9 6 4 5 7 15 19 20 4 6 2 5 7 4 3 10 17 11 1 9 6 7 15 12 8 10 6 5 3 11 12 9 3 5 3 2 4 5 8 15 19 29 33
15 12 9 5 6 9 13 15 15 1 4 1 3 3 6 7 1 9 20 15 4 4 5 9 5 6 8 11 4 6 16 9 10 5 4 3 4 5 8 13 17 20 24 26 27
17 13 8 7 7 5 11 13 10 5 3 3 5 4 3 4 6 4 15 15 9 4 6 10 16 6 8 9 11 15 17 7 5 3 3 9 3 4 10 28 17 18 25 29 28
17 11 6 7 7 6 14 12 5 4 5 3 3 1 4 3 7 5 5 4 4 1 3 6 6 4 11 11 14 16 10 1 3 3 2 10 3 6 5 16 19 20 21 30 33
11 6 6 7 7 6 14 5 5 4 5 4 5 10 5 5 3 4 2 3 5 4 2 2 7 4 2 10 13 12 8 4 5 4 4 4 5 3 7 14 23 27 27 26 29
7 4 5 6 8 3 5 4 5 5 1 4 6 7 4 4 4 10 4 7 5 8 5 0 5 5 4 4 9 6 6 10 5 2 3 5 1 4 4 8 19 22 28 30 33
6 6 1 9 7 4 4 4 4 4 3 5 4 3 3 1 6 6 4 6 5 5 11 6 3 2 7 3 3 7 5 3 3 3 4 3 4 5 9 11 14 18 28 30 33
5 4 9 9 7 1 2 6 6 14 4 3 5 4 3 4 3 2 4 6 7 10 2 5 4 8 2 3 7 3 2 4 4 4 5 3 4 4 13 6 9 5 12 30 36
4 3 13 13 2 2 2 5 11 11 13 3 3 2 4 8 8 5 2 4 12 10 4 4 5 2 6 8 3 5 3 3 5 6 3 4 4 5 6 9 15 10 5 7 19
8 4 16 17 1 2 6 7 5 5 5 4 4 3 6 1 3 4 4 6 14 4 2 5 4 3 8 7 9 7 3 1 2 2 3 5 4 5 11 12 14 16 8 2 8
4 3 3 22 18 4 5 6 1 6 4 4 3 9 4 5 6 1 2 1 4 5 10 3 5 5 4 5 2 4 6 5 3 2 2 2 4 4 5 3 5 6 2 5 11
1 3 3 3 8 7 3 7 3 3 6 13 7 6 4 4 4 5 5 6 7 12 8 5 4 2 2 2 3 3 7 10 7 5 4 3 5 2 1 2 4 8 4 8 17
2 4 6 11 12 6 1 4 8 3 6 4 11 11 10 6 2 2 3 3 4 5 5 5 1 2 6 6 6 7 16 19 12 12 11 9 6 2 5 2 4 7 9 10 14
3 4 4 8 8 5 3 5 1 7 11 17 15 7 8 5 10 10 6 7 8 0 2 3 3 3 3 6 3 8 7 17 13 12 3 4 2 4 4 5 9 11 16 16 14
Wind_Direction
356 356 356 354 352 345 332 326 313 304 304 291 288 291 287 279 271 262 255 218 181 130 159 177 183 177 208 335 56 78 39 333 37 1 78 304 148 142 131 133 141 138 143 150 148
356 354 353 355 356 355 347 341 319 307 301 297 288 289 291 290 281 268 254 214 184 182 185 184 175 170 182 213 24 75 41 327 28 291 161 248 137 136 136 135 113 125 138 148 155
356 355 355 358 2 1 357 347 331 310 301 302 294 288 291 300 304 341 305 221 199 180 187 193 196 227 204 145 37 70 190 97 3 244 223 273 180 136 137 170 142 143 149 153 153
358 358 360 2 7 8 3 354 340 322 306 299 293 284 285 294 224 52 9 202 187 185 196 195 211 237 209 150 171 129 245 237 216 215 290 266 163 149 160 165 156 153 157 158 158
1 1 4 7 11 15 10 358 342 327 310 298 294 283 277 261 245 41 6 175 193 192 203 198 208 218 208 163 153 174 224 221 222 190 243 230 128 161 160 153 155 153 157 163 165
4 2 5 11 13 9 7 3 353 333 315 298 287 273 252 272 108 337 350 254 219 203 202 202 207 218 282 195 172 184 168 191 204 213 281 113 29 126 151 147 159 153 161 163 163
1 0 3 8 6 360 359 2 3 349 333 307 286 267 256 230 149 171 334 332 227 210 209 204 217 264 312 304 104 135 120 147 222 232 215 80 72 61 144 166 155 154 152 162 165
355 356 357 358 356 356 355 352 353 1 356 341 288 273 255 26 225 251 231 303 200 197 207 206 225 267 268 174 113 134 114 188 196 201 173 164 169 167 188 173 169 159 166 157 165
351 350 352 350 346 350 351 347 339 339 352 1 316 322 269 197 221 213 224 231 182 187 200 219 273 255 262 79 69 109 156 262 260 231 147 132 165 180 170 174 182 157 158 160 162
346 343 347 344 337 343 342 342 329 304 306 299 262 315 279 300 261 234 201 218 222 208 243 253 245 143 62 98 215 173 177 218 203 12 252 105 162 184 154 155 169 125 165 161 163
343 339 342 341 329 338 339 348 347 335 296 271 288 268 292 347 279 190 187 203 230 241 192 255 95 210 217 212 64 289 12 155 126 359 223 202 186 214 165 153 119 131 168 167 171
342 336 336 335 321 319 328 325 21 343 309 307 298 280 286 295 176 192 183 194 206 197 200 17 214 233 223 242 245 272 173 69 92 235 209 9 292 289 175 188 122 142 164 177 169
343 334 329 327 313 309 300 329 343 334 296 298 249 252 288 178 177 200 206 220 158 172 209 180 235 236 219 247 257 158 150 178 179 117 50 183 132 295 59 150 112 172 161 167 170
342 332 320 322 308 283 322 342 339 339 39 279 215 266 254 247 263 206 195 202 243 197 222 229 257 236 231 231 224 98 286 154 132 140 161 349 144 314 294 257 176 191 180 161 165
337 328 312 302 279 285 331 327 340 72 14 312 200 190 187 202 215 212 199 203 239 236 100 244 247 203 234 226 141 148 147 143 141 77 102 330 89 238 288 252 221 188 196 182 165
331 319 294 292 262 334 324 327 330 48 308 304 159 179 78 271 298 211 188 208 234 260 265 249 270 175 218 209 123 130 95 91 77 107 107 219 226 218 217 227 221 221 189 188 177
328 308 273 271 174 291 320 340 50 96 310 303 184 92 87 349 351 26 199 175 182 38 310 320 279 264 228 87 105 109 96 6 5 5 229 192 259 249 262 227 217 220 216 195 185
324 304 258 226 222 298 338 44 66 253 235 300 74 66 52 349 342 327 283 258 248 132 348 272 329 163 218 146 154 143 156 174 175 177 162 189 242 242 290 217 184 207 202 211 199
342 319 281 188 197 280 354 40 209 224 202 110 42 66 347 337 41 19 289 225 239 171 192 307 274 325 314 164 133 124 177 184 120 337 80 175 55 320 282 114 148 175 181 199 212
1 334 198 144 168 219 62 238 249 222 213 81 117 161 5 342 35 8 321 307 276 243 186 247 349 303 294 117 80 139 177 70 3 154 218 183 157 187 230 190 165 166 177 198 205
31 355 156 152 169 214 156 237 283 300 154 124 186 152 186 127 161 239 279 292 332 336 337 122 96 298 19 151 182 43 34 71 128 145 172 171 236 52 227 190 160 202 221 191 194
16 22 171 169 134 231 211 220 301 21 36 67 99 126 145 167 192 188 281 229 348 341 5 322 129 268 246 314 238 112 28 101 125 268 184 144 254 2 62 62 71 60 53 272 202
345 302 187 184 206 260 292 291 248 47 20 28 58 298 115 255 31 2 291 352 303 357 20 305 49 15 347 355 6 40 8 79 211 80 219 126 249 34 58 48 21 31 44 231 233
355 7 253 218 247 244 295 299 245 35 51 83 51 60 74 79 34 72 326 235 50 336 31 59 72 140 169 202 180 332 339 41 105 76 200 191 136 42 34 53 22 5 40 193 213
309 259 348 278 287 245 216 244 130 49 5 14 4 37 126 75 50 8 357 359 6 19 12 81 81 330 274 255 206 242 28 23 21 283 147 109 105 143 296 208 343 37 56 212 195
335 0 314 292 286 305 192 347 119 156 98 23 85 58 59 86 131 355 357 38 254 1 30 4 358 88 2 359 322 70 48 49 49 59 72 80 63 212 70 125 66 37 53 88 108
320 289 309 296 327 27 269 147 131 117 47 111 111 81 30 330 327 299 290 293 270 175 73 72 96 52 305 319 345 42 0 58 53 31 68 43 59 64 62 53 32 73 63 78 65